Location: Newark
(31.5350°N, 35.0986°E)
Time: 15:55:28
(UTC+00:00)

A-11 Canister half - Pass Details

Date: 27 October 2019
Orbit: 1514 x 1686 km, 47.2° (Epoch: 18 November)

Event Time Altitude Azimuth Distance (km) Brightness Sun altitude
Exits shadow 01:23:56 26° 334° (NNW) 2,772 10.1 -31.9°
Maximum altitude 01:27:23 32° 7° (N) 2,482 10.1 -31.2°
Drops below altitude 10° 01:35:40 10° 68° (ENE) 3,749 11.9 -29.4°
Sets 01:39:12 0° 78° (ENE) 4,710 12.8 -28.7°
